Location: Newark
(42.7133°N, 87.7910°W)
Time: 18:58:19
(UTC+00:00)

Transit 4A - Pass Details

Date: 18 September 2019
Orbit: 867 x 978 km, 66.8° (Epoch: 23 October)

Event Time Altitude Azimuth Distance (km) Brightness Sun altitude
Rises 01:26:15 0° 334° (NNW) 3,614 11.7 -16.7°
Reaches altitude 10° 01:29:15 10° 347° (NNW) 2,647 10.7 -17.3°
Maximum altitude 01:34:25 27° 44° (NE) 1,674 9.0 -18.2°
Enters shadow 01:36:20 23° 73° (ENE) 1,825 9.0 -18.5°
